This demonstration page uses our WeatherBlox Daily Observations layout. Learn more.

Left ArrowRight Arrow

Hourly Observations for August 22, 2020

Temp ( °F °C ) Dew Point ( °F °C ) Humidity (%) Winds ( mph kmh ) Pressure ( in mb ) Visibility ( mi km ) Precip ( " mm )
12:53 am 00:53 Clear 66 18.9 64 17.8 93 93 N N/A 29.93 1014 10 16.0934 N/A
1:53 am 01:53 Clear 66 18.9 64 17.8 93 93 N N/A 29.93 1014 10 16.0934 N/A
2:53 am 02:53 Clear 66 18.9 64 17.8 93 93 N N/A 29.93 1013 10 16.0934 N/A
3:53 am 03:53 Clear 65 18.3 63 17.2 93 93 N N/A 29.93 1014 10 16.0934 N/A
4:53 am 04:53 Clear 63 17.2 62 16.7 97 97 N N/A 29.93 1014 10 16.0934 N/A
5:53 am 05:53 Clear 62 16.7 61 16.1 96 96 N N/A 29.94 1014 10 16.0934 N/A
6:53 am 06:53 Clear 62 16.7 60 15.6 93 93 NNW 3 6 29.95 1014 10 16.0934 N/A
7:53 am 07:53 Sunny 63 17.2 62 16.7 97 97 N N/A 29.97 1015 10 16.0934 N/A
8:53 am 08:53 Sunny 65 18.3 64 17.8 97 97 N N/A 29.99 1016 10 16.0934 N/A
9:53 am 09:53 Sunny 70 21.1 64 17.8 82 82 N N/A 29.99 1016 10 16.0934 N/A
10:53 am 10:53 Mostly Sunny 78 25.6 65 18.3 64 64 N 6 9 30 1016 10 16.0934 N/A
11:53 am 11:53 Sunny 82 27.8 65 18.3 56 56 NE 6 9 29.98 1015 10 16.0934 N/A
12:53 pm 12:53 Sunny 84 28.9 65 18.3 53 53 E 7 11 29.96 1014 10 16.0934 N/A
1:53 pm 13:53 Sunny 82 27.8 68 20 63 63 N N/A 29.95 1014 10 16.0934 N/A
2:53 pm 14:53 Sunny 83 28.3 68 20 61 61 N N/A 29.95 1014 10 16.0934 N/A
3:44 pm 15:44 Sunny with Nearby Thunderstorms 82 27.8 69 20.6 65 65 ESE 7 11 29.93 1013 10 16.0934 N/A
3:53 pm 15:53 Sunny with Nearby Thunderstorms 81 27.2 68 20 65 65 VRB 7 11 29.95 1014 10 16.0934 N/A
4:07 pm 16:07 Sunny 83 28.3 69 20.6 63 63 VRB 5 7 29.93 1013 10 16.0934 N/A
4:53 pm 16:53 Sunny 81 27.2 69 20.6 67 67 VRB 5 7 29.94 1014 10 16.0934 N/A
5:53 pm 17:53 Sunny 78 25.6 67 19.4 69 69 VRB 3 6 29.96 1014 10 16.0934 N/A
6:53 pm 18:53 Mostly Sunny 77 25 68 20 74 74 N N/A 29.95 1014 10 16.0934 N/A
7:53 pm 19:53 Sunny 72 22.2 68 20 87 87 N N/A 29.95 1014 10 16.0934 N/A
8:53 pm 20:53 Clear 70 21.1 68 20 93 93 N N/A 29.98 1015 9 14.48406 N/A
9:53 pm 21:53 Clear 68 20 67 19.4 96 96 N N/A 29.99 1016 10 16.0934 N/A
10:53 pm 22:53 Clear 67 19.4 65 18.3 93 93 N N/A 29.99 1016 10 16.0934 N/A
11:53 pm 23:53 Clear 66 18.9 64 17.8 93 93 N N/A 29.99 1016 7 11.26538 N/A

Powered by AerisWeather